Columbus, OH

10:47 PM EDT on September 27, 2016 (GMT -0400)
Port Columbus International

Weather History for KCMH - April, 2013

Change the Weather History Date:

Wednesday, April 3, 2013

  Actual Average Record
Temperature  
Mean Temperature 37 °F 49 °F  
Max Temperature 47 °F 59 °F 80 °F (2007)
Min Temperature 26 °F 39 °F 18 °F (1879)
Degree Days  
Heating Degree Days 28 17  
Month to date heating degree days 83 51  
Since 1 July heating degree days 4792 4762  
Cooling Degree Days 0 0  
Month to date cooling degree days 0 0  
Year to date cooling degree days 0 0  
Moisture  
Dew Point 12 °F    
Average Humidity 41    
Maximum Humidity 57    
Minimum Humidity 25    
Precipitation  
Precipitation 0.00 in 0.11 in 1.50 in (2000)
Month to date precipitation T 0.34  
Year to date precipitation 7.19 8.34  
Snow  
Snow 0.00 in 0.10 in 2.00 in (1911)
Month to date snowfall T 0.2  
Since 1 July snowfall 41.2 25.8  
Snow Depth 0.00 in    
Sea Level Pressure  
Sea Level Pressure 30.36 in    
Wind  
Wind Speed 8 mph (North)    
Max Wind Speed 22 mph    
Max Gust Speed 26 mph    
Visibility 10 miles    
Events      
T = Trace of Precipitation, MM = Missing Value Source: NWS Daily Summary

Daily Weather History Graph

Daily Weather History Graph

Search for Another Location

Airport or City:

Trip Planner

Search our weather history database for the weather conditions in past years. The results will help you decide how hot, cold, wet, or windy it might be!

Date:

Astronomy

Apr. 03, 2013 Rise Set
Actual Time 7:11 AM EDT 7:58 PM EDT
Civil Twilight 6:44 AM EDT 8:25 PM EDT
Nautical Twilight 6:12 AM EDT 8:58 PM EDT
Astronomical Twilight 5:38 AM EDT 9:31 PM EDT
Moon 2:51 AM EDT (4/3) 1:09 PM EDT (4/3)
Length of Visible Light 13h 40m
Length of Day
12h 46m
Last Quarter, 45% of the Moon is Illuminated
Apr 3
Last Quarter
Apr 10
New
Apr 18
First Quarter
Apr 25
Full
May 2
Last Quarter

Hourly Weather History & Observations

Time (EDT) Temp. Windchill Dew Point Humidity Pressure Visibility Wind Dir Wind Speed Gust Speed Precip Events Conditions
12:51 AM 34.0 °F 26.0 °F 12.0 °F 40% 30.27 in 10.0 mi NW 10.4 mph - N/A   Clear
1:51 AM 33.1 °F 27.7 °F 12.0 °F 42% 30.28 in 10.0 mi NW 5.8 mph - N/A   Clear
2:51 AM 30.9 °F 26.2 °F 12.0 °F 46% 30.28 in 10.0 mi NNW 4.6 mph - N/A   Clear
3:51 AM 30.9 °F 27.5 °F 12.0 °F 46% 30.29 in 10.0 mi NW 3.5 mph - N/A   Clear
4:51 AM 28.9 °F 25.2 °F 12.0 °F 49% 30.31 in 10.0 mi WNW 3.5 mph - N/A   Clear
5:51 AM 28.0 °F 24.2 °F 12.9 °F 53% 30.31 in 10.0 mi NNW 3.5 mph - N/A   Clear
6:51 AM 28.0 °F 22.8 °F 12.0 °F 51% 30.33 in 10.0 mi NNW 4.6 mph - N/A   Clear
7:51 AM 27.0 °F 21.6 °F 14.0 °F 58% 30.34 in 10.0 mi North 4.6 mph - N/A   Clear
8:51 AM 30.0 °F 23.2 °F 14.0 °F 51% 30.36 in 10.0 mi North 6.9 mph - N/A   Clear
9:51 AM 34.0 °F 29.8 °F 15.1 °F 46% 30.42 in 10.0 mi North 4.6 mph - N/A   Clear
10:51 AM 35.6 °F 32.8 °F 10.4 °F 35% 30.40 in 10.0 mi Variable 3.5 mph - N/A   Clear
11:51 AM 37.9 °F 31.5 °F 10.0 °F 32% 30.43 in 10.0 mi NW 9.2 mph - N/A   Scattered Clouds
12:51 PM 41.0 °F 33.5 °F 12.0 °F 31% 30.40 in 10.0 mi North 13.8 mph - N/A   Scattered Clouds
1:51 PM 43.0 °F 34.8 °F 12.9 °F 30% 30.40 in 10.0 mi NW 18.4 mph 23.0 mph N/A   Scattered Clouds
2:51 PM 44.1 °F 37.1 °F 12.0 °F 27% 30.38 in 10.0 mi North 15.0 mph 23.0 mph N/A   Scattered Clouds
3:51 PM 45.0 °F 38.2 °F 12.9 °F 27% 30.37 in 10.0 mi NNW 15.0 mph 25.3 mph N/A   Clear
4:51 PM 46.9 °F - 12.9 °F 25% 30.38 in 10.0 mi North 13.8 mph 20.7 mph N/A   Scattered Clouds
5:51 PM 46.0 °F 40.6 °F 12.0 °F 25% 30.39 in 10.0 mi NNE 11.5 mph - N/A   Scattered Clouds
6:51 PM 45.0 °F 40.1 °F 10.9 °F 25% 30.39 in 10.0 mi NNE 9.2 mph - N/A   Partly Cloudy
7:51 PM 42.1 °F 36.1 °F 12.9 °F 31% 30.38 in 10.0 mi NE 10.4 mph - N/A   Partly Cloudy
8:51 PM 39.0 °F 32.8 °F 12.0 °F 33% 30.38 in 10.0 mi ENE 9.2 mph - N/A   Clear
9:51 PM 36.0 °F 29.6 °F 12.0 °F 37% 30.38 in 10.0 mi NE 8.1 mph - N/A   Clear
10:51 PM 33.8 °F 28.6 °F 12.2 °F 41% 30.35 in 10.0 mi ENE 5.8 mph - N/A   Clear
11:51 PM 33.1 °F 25.5 °F 12.0 °F 42% 30.38 in 10.0 mi ENE 9.2 mph - N/A   Clear